When you browse on this site, cookies collect data to enhance your experience and personalize the content and advertising you see.
Visit our Privacy Policy to learn more. By continuing to use the site, you agree to this use of cookies and data.
  • în România
  • Lista ţărilor
  • Pe 7 zile
  • Temperatura apei
  • Hartă satelitară
  • Meteo pe hartă
  • Widget-uri
  • user-avatar
    Intrare

    Meteo pe oră la Arriba

    Astăzi, 17 Iulie, Miercuri

    Timp Temperatura Precipitaţii Vânt Presiune Umiditate
    00:00 +19°C° 0 mm 2 m/s 754 mmHg 84%
    01:00 +18°C° 0 mm 2 m/s 754 mmHg 86%
    02:00 +18°C° 0 mm 2 m/s 753 mmHg 88%
    03:00 +17°C° 0 mm 2 m/s 753 mmHg 90%
    04:00 +17°C° 0 mm 2 m/s 753 mmHg 91%
    05:00 +17°C° 0 mm 2 m/s 753 mmHg 91%
    06:00 +17°C° 0 mm 2 m/s 754 mmHg 92%
    07:00 +19°C° 0 mm 2 m/s 754 mmHg 81%
    08:00 +23°C° 0 mm 2 m/s 754 mmHg 70%
    09:00 +26°C° 0 mm 2 m/s 754 mmHg 59%
    10:00 +27°C° 0 mm 3 m/s 754 mmHg 52%
    11:00 +29°C° 0 mm 3 m/s 754 mmHg 44%
    12:00 +32°C° 0 mm 4 m/s 754 mmHg 37%
    13:00 +32°C° 0 mm 5 m/s 754 mmHg 39%
    14:00 +32°C° 0 mm 6 m/s 753 mmHg 41%
    15:00 +32°C° 0 mm 7 m/s 753 mmHg 43%
    16:00 +29°C° 0 mm 6 m/s 753 mmHg 48%
    17:00 +28°C° 0 mm 6 m/s 752 mmHg 52%
    18:00 +26°C° 0 mm 6 m/s 752 mmHg 57%
    19:00 +25°C° 0 mm 4 m/s 752 mmHg 64%
    20:00 +22°C° 0 mm 3 m/s 753 mmHg 71%
    21:00 +21°C° 0 mm 2 m/s 753 mmHg 78%
    22:00 +21°C° 0 mm 2 m/s 753 mmHg 78%
    23:00 +20°C° 0 mm 2 m/s 754 mmHg 78%

    Mâine, 18 Iulie, Joi

    Timp Temperatura Precipitaţii Vânt Presiune Umiditate
    00:00 +20°C° 0 mm 3 m/s 754 mmHg 78%
    01:00 +20°C° 0 mm 3 m/s 753 mmHg 81%
    02:00 +19°C° 0 mm 2 m/s 753 mmHg 84%
    03:00 +18°C° 0 mm 2 m/s 753 mmHg 87%
    04:00 +18°C° 0 mm 2 m/s 753 mmHg 89%
    05:00 +18°C° 0 mm 2 m/s 753 mmHg 91%
    06:00 +18°C° 0 mm 2 m/s 753 mmHg 93%
    07:00 +20°C° 0 mm 2 m/s 753 mmHg 82%
    08:00 +24°C° 0 mm 2 m/s 754 mmHg 71%
    09:00 +27°C° 0 mm 2 m/s 754 mmHg 59%
    10:00 +29°C° 0 mm 2 m/s 753 mmHg 51%
    11:00 +32°C° 0 mm 2 m/s 753 mmHg 43%
    12:00 +36°C° 0 mm 3 m/s 753 mmHg 35%
    13:00 +36°C° 0 mm 4 m/s 752 mmHg 34%
    14:00 +36°C° 0 mm 5 m/s 752 mmHg 33%
    15:00 +36°C° 0 mm 5 m/s 751 mmHg 33%
    16:00 +34°C° 0 mm 5 m/s 751 mmHg 37%
    17:00 +33°C° 0 mm 5 m/s 751 mmHg 42%
    18:00 +30°C° 0 mm 5 m/s 751 mmHg 46%
    19:00 +28°C° 0 mm 4 m/s 751 mmHg 51%
    20:00 +26°C° 0 mm 3 m/s 751 mmHg 57%
    21:00 +24°C° 0 mm 2 m/s 752 mmHg 62%
    22:00 +24°C° 0 mm 2 m/s 752 mmHg 60%
    23:00 +24°C° 0 mm 2 m/s 752 mmHg 59%

    Poimâine, 19 Iulie, Vineri

    Timp Temperatura Precipitaţii Vânt Presiune Umiditate
    00:00 +24°C° 0 mm 2 m/s 752 mmHg 57%
    01:00 +23°C° 0 mm 2 m/s 752 mmHg 62%
    02:00 +21°C° 0 mm 2 m/s 751 mmHg 67%
    03:00 +22°C° 0 mm 1 m/s 751 mmHg 72%
    04:00 +22°C° 0 mm 1 m/s 751 mmHg 71%
    05:00 +21°C° 0 mm 2 m/s 751 mmHg 70%
    06:00 +21°C° 0 mm 2 m/s 751 mmHg 69%
    07:00 +25°C° 0 mm 2 m/s 751 mmHg 58%
    08:00 +28°C° 0 mm 1 m/s 751 mmHg 48%
    09:00 +31°C° 0 mm 1 m/s 752 mmHg 37%
    10:00 +35°C° 0 mm 2 m/s 751 mmHg 32%
    11:00 +38°C° 0 mm 2 m/s 751 mmHg 26%
    12:00 +40°C° 0 mm 2 m/s 751 mmHg 20%
    13:00 +42°C° 0 mm 3 m/s 750 mmHg 19%
    14:00 +42°C° 0 mm 4 m/s 750 mmHg 19%
    15:00 +43°C° 0 mm 5 m/s 749 mmHg 18%
    16:00 +40°C° 0 mm 5 m/s 749 mmHg 23%
    17:00 +36°C° 0 mm 6 m/s 749 mmHg 29%
    18:00 +33°C° 0 mm 7 m/s 748 mmHg 34%
    19:00 +32°C° 0 mm 6 m/s 749 mmHg 38%
    20:00 +29°C° 0 mm 6 m/s 750 mmHg 43%
    21:00 +27°C° 0 mm 5 m/s 750 mmHg 47%
    22:00 +26°C° 0 mm 4 m/s 750 mmHg 50%
    23:00 +26°C° 0 mm 3 m/s 751 mmHg 53%

    20 Iulie, Sâmbătă

    Timp Temperatura Precipitaţii Vânt Presiune Umiditate
    00:00 +25°C° 0 mm 2 m/s 751 mmHg 56%
    01:00 +24°C° 0 mm 2 m/s 751 mmHg 56%
    02:00 +24°C° 0 mm 2 m/s 751 mmHg 57%
    03:00 +23°C° 0 mm 2 m/s 751 mmHg 58%
    04:00 +23°C° 0 mm 2 m/s 751 mmHg 57%
    05:00 +23°C° 0 mm 2 m/s 751 mmHg 57%
    06:00 +23°C° 0 mm 2 m/s 751 mmHg 56%
    07:00 +26°C° 0 mm 2 m/s 751 mmHg 49%
    08:00 +29°C° 0 mm 2 m/s 751 mmHg 41%
    09:00 +32°C° 0 mm 2 m/s 751 mmHg 34%
    10:00 +35°C° 0 mm 2 m/s 751 mmHg 30%
    11:00 +37°C° 0 mm 3 m/s 751 mmHg 26%
    12:00 +39°C° 0 mm 3 m/s 751 mmHg 23%
    13:00 +41°C° 0 mm 4 m/s 751 mmHg 22%
    14:00 +41°C° 0 mm 5 m/s 750 mmHg 21%
    15:00 +42°C° 0 mm 5 m/s 750 mmHg 20%
    16:00 +40°C° 0 mm 5 m/s 750 mmHg 23%
    17:00 +39°C° 0 mm 5 m/s 750 mmHg 26%
    18:00 +36°C° 0 mm 4 m/s 749 mmHg 29%
    19:00 +34°C° 0 mm 4 m/s 750 mmHg 37%
    20:00 +30°C° 0 mm 4 m/s 751 mmHg 44%
    21:00 +27°C° 0 mm 3 m/s 751 mmHg 52%
    22:00 +27°C° 0 mm 3 m/s 752 mmHg 53%
    23:00 +26°C° 0 mm 3 m/s 752 mmHg 54%

    21 Iulie, Duminică

    Timp Temperatura Precipitaţii Vânt Presiune Umiditate
    00:00 +26°C° 0 mm 2 m/s 753 mmHg 54%
    01:00 +26°C° 0 mm 2 m/s 752 mmHg 54%
    02:00 +25°C° 0 mm 2 m/s 752 mmHg 53%
    03:00 +25°C° 0 mm 1 m/s 752 mmHg 53%
    04:00 +24°C° 0 mm 1 m/s 752 mmHg 54%
    05:00 +24°C° 0 mm 1 m/s 752 mmHg 54%
    06:00 +24°C° 0 mm 1 m/s 752 mmHg 55%
    07:00 +26°C° 0 mm 1 m/s 752 mmHg 50%
    08:00 +29°C° 0 mm 2 m/s 753 mmHg 46%
    09:00 +31°C° 0 mm 2 m/s 753 mmHg 41%
    10:00 +34°C° 0 mm 2 m/s 753 mmHg 39%
    11:00 +36°C° 0 mm 3 m/s 753 mmHg 36%
    12:00 +37°C° 0 mm 3 m/s 753 mmHg 34%
    13:00 +37°C° 0 mm 4 m/s 753 mmHg 36%
    14:00 +37°C° 0 mm 4 m/s 752 mmHg 38%
    15:00 +37°C° 0 mm 5 m/s 752 mmHg 40%
    16:00 +36°C° 0 mm 5 m/s 752 mmHg 42%
    17:00 +35°C° 0 mm 4 m/s 752 mmHg 44%
    18:00 +34°C° 0 mm 4 m/s 752 mmHg 46%
    19:00 +30°C° 0 mm 3 m/s 752 mmHg 56%
    20:00 +27°C° 0 mm 3 m/s 753 mmHg 66%
    21:00 +25°C° 0 mm 2 m/s 754 mmHg 77%
    22:00 +24°C° 0 mm 2 m/s 754 mmHg 79%
    23:00 +24°C° 0 mm 2 m/s 754 mmHg 82%

    22 Iulie, Luni

    Timp Temperatura Precipitaţii Vânt Presiune Umiditate
    00:00 +23°C° 0 mm 1 m/s 755 mmHg 85%
    01:00 +23°C° 0 mm 1 m/s 754 mmHg 85%
    02:00 +22°C° 0 mm 1 m/s 754 mmHg 86%
    03:00 +20°C° 0 mm 0 m/s 754 mmHg 86%
    04:00 +22°C° 0 mm 1 m/s 754 mmHg 86%
    05:00 +22°C° 0 mm 1 m/s 754 mmHg 85%
    06:00 +23°C° 0 mm 1 m/s 754 mmHg 85%
    07:00 +25°C° 0 mm 1 m/s 755 mmHg 76%
    08:00 +27°C° 0 mm 2 m/s 755 mmHg 67%
    09:00 +29°C° 0 mm 2 m/s 755 mmHg 58%
    10:00 +31°C° 0 mm 3 m/s 755 mmHg 54%
    11:00 +33°C° 0 mm 3 m/s 755 mmHg 49%
    12:00 +35°C° 0 mm 4 m/s 755 mmHg 44%
    13:00 +36°C° 0 mm 4 m/s 754 mmHg 41%
    14:00 +37°C° 0 mm 4 m/s 754 mmHg 37%
    15:00 +37°C° 0 mm 4 m/s 754 mmHg 34%
    16:00 +36°C° 0 mm 4 m/s 753 mmHg 38%
    17:00 +34°C° 0 mm 4 m/s 753 mmHg 42%
    18:00 +32°C° 0 mm 5 m/s 753 mmHg 47%
    19:00 +29°C° 0 mm 4 m/s 753 mmHg 49%
    20:00 +27°C° 0 mm 4 m/s 754 mmHg 52%
    21:00 +25°C° 0 mm 3 m/s 754 mmHg 55%
    22:00 +23°C° 0 mm 4 m/s 754 mmHg 54%
    23:00 +23°C° 0 mm 4 m/s 754 mmHg 53%
    Arată mai mult